Time,TemperatureF,DewpointF,PressureIn,WindDirection,WindDirectionDegrees,WindSpeedMPH,WindSpeedGustMPH,Humidity,HourlyPrecipIn,Conditions,Clouds,dailyrainin,SoftwareType,DateUTC
2013-07-16 00:01:00,58.0,50.0,29.95,North,-999,0.0,0.0,76,0.00,,,0.00,,2013-07-16 07:01:00,
2013-07-16 00:11:00,59.0,51.0,29.95,SW,225,0.0,1.0,76,0.00,,,0.00,,2013-07-16 07:11:00,
2013-07-16 00:22:00,58.0,51.0,29.94,North,-999,0.0,0.0,78,0.00,,,0.00,,2013-07-16 07:22:00,
2013-07-16 00:32:00,57.0,52.0,29.94,North,-999,0.0,0.0,83,0.00,,,0.00,,2013-07-16 07:32:00,
2013-07-16 00:43:00,56.0,52.0,29.94,North,-999,0.0,0.0,85,0.00,,,0.00,,2013-07-16 07:43:00,
2013-07-16 00:52:00,56.0,52.0,29.94,North,-999,0.0,0.0,87,0.00,,,0.00,,2013-07-16 07:52:00,
2013-07-16 01:01:00,56.0,52.0,29.94,North,-999,0.0,0.0,87,0.00,,,0.00,,2013-07-16 08:01:00,
2013-07-16 01:11:00,57.0,52.0,29.94,North,-999,0.0,0.0,84,0.00,,,0.00,,2013-07-16 08:11:00,
2013-07-16 01:22:00,56.0,52.0,29.94,North,-999,0.0,0.0,85,0.00,,,0.00,,2013-07-16 08:22:00,
2013-07-16 01:32:00,56.0,52.0,29.94,North,-999,0.0,0.0,85,0.00,,,0.00,,2013-07-16 08:32:00,
2013-07-16 01:43:00,55.0,51.0,29.94,North,-999,0.0,0.0,86,0.00,,,0.00,,2013-07-16 08:43:00,
2013-07-16 01:52:00,56.0,52.0,29.94,North,-999,0.0,0.0,87,0.00,,,0.00,,2013-07-16 08:52:00,
2013-07-16 02:01:00,56.0,52.0,29.93,North,-999,0.0,0.0,86,0.00,,,0.00,,2013-07-16 09:01:00,
2013-07-16 02:12:00,56.0,52.0,29.93,North,-999,0.0,0.0,86,0.00,,,0.00,,2013-07-16 09:12:00,
2013-07-16 02:22:00,56.0,52.0,29.93,North,-999,0.0,0.0,86,0.00,,,0.00,,2013-07-16 09:22:00,
2013-07-16 02:32:00,56.0,52.0,29.93,North,-999,0.0,0.0,87,0.00,,,0.00,,2013-07-16 09:32:00,
2013-07-16 02:42:00,56.0,52.0,29.93,SSW,202,0.0,1.0,88,0.00,,,0.00,,2013-07-16 09:42:00,
2013-07-16 02:52:00,56.0,52.0,29.93,North,-999,0.0,0.0,88,0.00,,,0.00,,2013-07-16 09:52:00,
2013-07-16 03:01:00,56.0,52.0,29.93,North,-999,0.0,0.0,88,0.00,,,0.00,,2013-07-16 10:01:00,
2013-07-16 03:11:00,56.0,53.0,29.93,North,-999,0.0,0.0,90,0.00,,,0.00,,2013-07-16 10:11:00,
2013-07-16 03:21:00,55.0,52.0,29.93,North,-999,0.0,0.0,90,0.00,,,0.00,,2013-07-16 10:21:00,
2013-07-16 03:31:00,55.0,52.0,29.93,North,-999,0.0,0.0,91,0.00,,,0.00,,2013-07-16 10:31:00,
2013-07-16 03:42:00,54.0,52.0,29.93,North,-999,0.0,0.0,93,0.00,,,0.00,,2013-07-16 10:42:00,
2013-07-16 03:52:00,54.0,52.0,29.93,North,-999,0.0,0.0,93,0.00,,,0.00,,2013-07-16 10:52:00,
2013-07-16 04:01:00,54.0,52.0,29.93,North,-999,0.0,0.0,93,0.00,,,0.00,,2013-07-16 11:01:00,
2013-07-16 04:11:00,54.0,52.0,29.92,North,-999,0.0,0.0,94,0.00,,,0.00,,2013-07-16 11:11:00,
2013-07-16 04:22:00,54.0,52.0,29.93,North,-999,0.0,0.0,94,0.00,,,0.00,,2013-07-16 11:22:00,
2013-07-16 04:32:00,55.0,53.0,29.92,North,-999,0.0,0.0,92,0.00,,,0.00,,2013-07-16 11:32:00,
2013-07-16 04:42:00,55.0,53.0,29.92,North,-999,0.0,0.0,92,0.00,,,0.00,,2013-07-16 11:42:00,
2013-07-16 04:52:00,55.0,53.0,29.92,North,-999,0.0,0.0,92,0.00,,,0.00,,2013-07-16 11:52:00,
2013-07-16 05:01:00,54.0,52.0,29.92,North,-999,0.0,0.0,92,0.00,,,0.00,,2013-07-16 12:01:00,
2013-07-16 05:11:00,54.0,52.0,29.92,North,-999,0.0,0.0,92,0.00,,,0.00,,2013-07-16 12:11:00,
2013-07-16 05:22:00,54.0,52.0,29.92,North,-999,0.0,0.0,92,0.00,,,0.00,,2013-07-16 12:22:00,
2013-07-16 05:32:00,54.0,52.0,29.93,North,-999,0.0,0.0,92,0.00,,,0.00,,2013-07-16 12:32:00,
2013-07-16 05:43:00,55.0,52.0,29.93,North,-999,0.0,0.0,91,0.00,,,0.00,,2013-07-16 12:43:00,
2013-07-16 05:53:00,54.0,52.0,29.92,North,-999,0.0,0.0,93,0.00,,,0.00,,2013-07-16 12:53:00,
2013-07-16 06:01:00,54.0,52.0,29.93,North,-999,0.0,0.0,93,0.00,,,0.00,,2013-07-16 13:01:00,
2013-07-16 06:32:00,53.0,52.0,29.92,North,-999,0.0,0.0,96,0.00,,,0.00,,2013-07-16 13:32:00,
2013-07-16 06:42:00,53.0,52.0,29.92,North,-999,0.0,0.0,96,0.00,,,0.00,,2013-07-16 13:42:00,
2013-07-16 07:01:00,55.0,53.0,29.92,South,180,0.0,1.0,94,0.00,,,0.00,,2013-07-16 14:01:00,
2013-07-16 07:11:00,55.0,53.0,29.92,South,180,0.0,1.0,94,0.00,,,0.00,,2013-07-16 14:11:00,
2013-07-16 07:21:00,57.0,55.0,29.92,North,-999,0.0,0.0,92,0.00,,,0.00,,2013-07-16 14:21:00,
2013-07-16 07:42:00,58.0,55.0,29.91,North,-999,0.0,0.0,90,0.00,,,0.00,,2013-07-16 14:42:00,
2013-07-16 07:52:00,59.0,56.0,29.91,South,180,0.0,1.0,91,0.00,,,0.00,,2013-07-16 14:52:00,
2013-07-16 08:01:00,61.0,57.0,29.91,North,-999,0.0,0.0,86,0.00,,,0.00,,2013-07-16 15:01:00,
2013-07-16 08:11:00,61.0,57.0,29.91,North,-999,0.0,0.0,86,0.00,,,0.00,,2013-07-16 15:11:00,
2013-07-16 09:32:00,71.0,60.0,29.90,ENE,67,1.0,3.0,68,0.00,,,0.00,,2013-07-16 16:32:00,
2013-07-16 09:43:00,71.0,59.0,29.90,ENE,67,1.0,3.0,67,0.00,,,0.00,,2013-07-16 16:43:00,
2013-07-16 09:52:00,71.0,57.0,29.89,NE,45,2.0,4.0,61,0.00,,,0.00,,2013-07-16 16:52:00,
2013-07-16 10:02:00,72.0,58.0,29.89,NE,45,1.0,2.0,62,0.00,,,0.00,,2013-07-16 17:02:00,
2013-07-16 10:11:00,74.0,61.0,29.89,East,90,0.0,2.0,65,0.00,,,0.00,,2013-07-16 17:11:00,
2013-07-16 10:22:00,75.0,59.0,29.90,ENE,67,0.0,2.0,58,0.00,,,0.00,,2013-07-16 17:22:00,
2013-07-16 10:43:00,76.0,60.0,29.90,ENE,67,0.0,2.0,57,0.00,,,0.00,,2013-07-16 17:43:00,
2013-07-16 10:52:00,78.0,61.0,29.89,ENE,67,1.0,2.0,55,0.00,,,0.00,,2013-07-16 17:52:00,
2013-07-16 11:01:00,78.0,60.0,29.90,East,90,1.0,3.0,54,0.00,,,0.00,,2013-07-16 18:01:00,
2013-07-16 11:11:00,77.0,59.0,29.89,ENE,67,1.0,3.0,54,0.00,,,0.00,,2013-07-16 18:11:00,
2013-07-16 11:43:00,78.0,61.0,29.90,NE,45,2.0,4.0,55,0.00,,,0.00,,2013-07-16 18:43:00,
2013-07-16 11:52:00,78.0,62.0,29.89,NE,45,3.0,5.0,57,0.00,,,0.00,,2013-07-16 18:52:00,
2013-07-16 12:01:00,78.0,62.0,29.89,NE,45,3.0,5.0,57,0.00,,,0.00,,2013-07-16 19:01:00,
2013-07-16 12:11:00,80.0,60.0,29.90,WSW,247,1.0,3.0,51,0.00,,,0.00,,2013-07-16 19:11:00,
2013-07-16 12:22:00,81.0,58.0,29.90,SSE,157,1.0,3.0,46,0.00,,,0.00,,2013-07-16 19:22:00,
2013-07-16 12:32:00,81.0,60.0,29.90,ENE,67,1.0,7.0,49,0.00,,,0.00,,2013-07-16 19:32:00,
2013-07-16 12:43:00,81.0,59.0,29.89,NE,45,2.0,4.0,47,0.00,,,0.00,,2013-07-16 19:43:00,
2013-07-16 12:52:00,82.0,59.0,29.89,SE,135,2.0,4.0,46,0.00,,,0.00,,2013-07-16 19:52:00,
2013-07-16 13:03:00,82.0,61.0,29.88,NE,45,1.0,4.0,49,0.00,,,0.00,,2013-07-16 20:03:00,
2013-07-16 13:11:00,82.0,60.0,29.89,NE,45,3.0,6.0,48,0.00,,,0.00,,2013-07-16 20:11:00,
2013-07-16 13:43:00,84.0,59.0,29.88,SW,225,1.0,4.0,43,0.00,,,0.00,,2013-07-16 20:43:00,
2013-07-16 13:52:00,83.0,62.0,29.88,West,270,1.0,2.0,49,0.00,,,0.00,,2013-07-16 20:52:00,
2013-07-16 14:11:00,85.0,60.0,29.88,NNE,22,1.0,3.0,43,0.00,,,0.00,,2013-07-16 21:11:00,
2013-07-16 15:11:00,83.0,59.0,29.86,SW,225,1.0,4.0,45,0.00,,,0.00,,2013-07-16 22:11:00,
2013-07-16 15:22:00,83.0,59.0,29.86,NE,45,1.0,4.0,45,0.00,,,0.00,,2013-07-16 22:22:00,
2013-07-16 15:32:00,85.0,59.0,29.85,ESE,112,1.0,4.0,41,0.00,,,0.00,,2013-07-16 22:32:00,
2013-07-16 15:43:00,86.0,61.0,29.85,WSW,247,1.0,5.0,43,0.00,,,0.00,,2013-07-16 22:43:00,
2013-07-16 15:52:00,86.0,60.0,29.85,SSW,202,1.0,7.0,42,0.00,,,0.00,,2013-07-16 22:52:00,
2013-07-16 16:01:00,86.0,62.0,29.86,SSE,157,1.0,3.0,45,0.00,,,0.00,,2013-07-16 23:01:00,
2013-07-16 16:11:00,85.0,60.0,29.86,East,90,1.0,3.0,43,0.00,,,0.00,,2013-07-16 23:11:00,
2013-07-16 16:22:00,86.0,60.0,29.85,NE,45,1.0,3.0,42,0.00,,,0.00,,2013-07-16 23:22:00,
2013-07-16 16:32:00,85.0,59.0,29.86,NE,45,2.0,5.0,42,0.00,,,0.00,,2013-07-16 23:32:00,
2013-07-16 16:42:00,84.0,58.0,29.86,SW,225,1.0,4.0,41,0.00,,,0.00,,2013-07-16 23:42:00,
2013-07-16 16:52:00,83.0,59.0,29.86,SW,225,1.0,3.0,45,0.00,,,0.00,,2013-07-16 23:52:00,
2013-07-16 17:01:00,82.0,61.0,29.87,SW,225,0.0,2.0,50,0.00,,,0.00,,2013-07-17 00:01:00,
2013-07-16 17:33:00,80.0,64.0,29.87,SW,225,0.0,1.0,58,0.00,,,0.00,,2013-07-17 00:33:00,
2013-07-16 17:42:00,79.0,61.0,29.87,SW,225,0.0,1.0,54,0.00,,,0.00,,2013-07-17 00:42:00,
2013-07-16 17:52:00,78.0,59.0,29.88,South,180,0.0,1.0,53,0.00,,,0.00,,2013-07-17 00:52:00,
2013-07-16 18:01:00,78.0,60.0,29.89,North,-999,0.0,0.0,54,0.00,,,0.00,,2013-07-17 01:01:00,
2013-07-16 18:11:00,77.0,61.0,29.89,North,-999,0.0,0.0,58,0.00,,,0.00,,2013-07-17 01:11:00,
2013-07-16 18:22:00,76.0,61.0,29.88,North,-999,0.0,0.0,59,0.00,,,0.00,,2013-07-17 01:22:00,
2013-07-16 18:32:00,75.0,62.0,29.86,North,-999,0.0,0.0,65,0.00,,,0.00,,2013-07-17 01:32:00,
2013-07-16 18:42:00,74.0,63.0,29.85,North,-999,0.0,0.0,69,0.00,,,0.00,,2013-07-17 01:42:00,
2013-07-16 18:52:00,74.0,60.0,29.86,North,-999,0.0,0.0,61,0.00,,,0.00,,2013-07-17 01:52:00,
2013-07-16 19:11:00,74.0,60.0,29.85,South,180,1.0,1.0,61,0.00,,,0.00,,2013-07-17 02:11:00,
2013-07-16 19:32:00,73.0,60.0,29.83,West,270,0.0,1.0,64,0.00,,,0.00,,2013-07-17 02:32:00,
2013-07-16 19:43:00,72.0,63.0,29.83,SW,225,1.0,2.0,74,0.00,,,0.00,,2013-07-17 02:43:00,
2013-07-16 19:53:00,72.0,62.0,29.84,SSW,202,1.0,1.0,71,0.00,,,0.00,,2013-07-17 02:53:00,
2013-07-16 20:01:00,72.0,62.0,29.84,SSE,157,1.0,1.0,70,0.00,,,0.00,,2013-07-17 03:01:00,
2013-07-16 20:11:00,71.0,59.0,29.84,SW,225,0.0,1.0,66,0.00,,,0.00,,2013-07-17 03:11:00,
2013-07-16 20:43:00,70.0,57.0,29.85,ESE,112,0.0,1.0,64,0.00,,,0.00,,2013-07-17 03:43:00,
2013-07-16 20:52:00,70.0,58.0,29.86,SE,135,0.0,1.0,65,0.00,,,0.00,,2013-07-17 03:52:00,
2013-07-16 21:11:00,70.0,60.0,29.88,North,-999,0.0,0.0,70,0.00,,,0.00,,2013-07-17 04:11:00,
2013-07-16 21:22:00,69.0,59.0,29.88,North,-999,0.0,0.0,71,0.00,,,0.00,,2013-07-17 04:22:00,
2013-07-16 21:32:00,69.0,58.0,29.87,North,-999,0.0,0.0,68,0.00,,,0.00,,2013-07-17 04:32:00,
2013-07-16 21:42:00,68.0,57.0,29.86,North,-999,0.0,0.0,69,0.00,,,0.00,,2013-07-17 04:42:00,
2013-07-16 21:53:00,67.0,59.0,29.88,SSE,157,0.0,1.0,75,0.00,,,0.00,,2013-07-17 04:53:00,
2013-07-16 22:01:00,66.0,58.0,29.88,SE,135,0.0,1.0,76,0.00,,,0.00,,2013-07-17 05:01:00,
2013-07-16 22:11:00,66.0,58.0,29.88,SE,135,0.0,1.0,75,0.00,,,0.00,,2013-07-17 05:11:00,
2013-07-16 22:21:00,67.0,58.0,29.88,South,180,0.0,2.0,73,0.00,,,0.00,,2013-07-17 05:21:00,
2013-07-16 22:32:00,67.0,59.0,29.88,East,90,0.0,1.0,75,0.00,,,0.00,,2013-07-17 05:32:00,
2013-07-16 22:43:00,66.0,58.0,29.88,South,180,0.0,1.0,76,0.00,,,0.00,,2013-07-17 05:43:00,
2013-07-16 22:52:00,67.0,58.0,29.88,South,180,0.0,1.0,73,0.00,,,0.00,,2013-07-17 05:52:00,
2013-07-16 23:01:00,66.0,58.0,29.88,North,-999,0.0,0.0,76,0.00,,,0.00,,2013-07-17 06:01:00,
2013-07-16 23:11:00,66.0,58.0,29.89,SSE,157,0.0,1.0,75,0.00,,,0.00,,2013-07-17 06:11:00,
2013-07-16 23:32:00,66.0,57.0,29.90,SSE,157,0.0,1.0,74,0.00,,,0.00,,2013-07-17 06:32:00,
2013-07-16 23:43:00,67.0,59.0,29.91,SE,135,0.0,2.0,75,0.00,,,0.00,,2013-07-17 06:43:00,
2013-07-16 23:52:00,67.0,59.0,29.91,SW,225,0.0,1.0,76,0.00,,,0.00,,2013-07-17 06:52:00,